{"data":{"norad_id":55379,"epoch":"2026-05-25T00:15:15.829632Z","epoch_age_seconds":74369,"freshness":"FRESH","line1":"1 55379U 23013BA  26145.01059988  .00000117  00000+0  13791-4 0  9999","line2":"2 55379  43.0049 247.2459 0001995 276.2482  83.8142 15.27577583183175","mean_motion":15.27577583,"eccentricity":0.0001995,"inclination_deg":43.0049,"raan_deg":247.2459,"arg_perigee_deg":276.2482,"mean_anomaly_deg":83.8142,"bstar":1.3791e-5,"rev_number":18317,"period_min":94.26689786662,"perigee_km":481.68752534669,"apogee_km":484.42514148672,"semimajor_km":6861.1933334167,"source":"CELESTRAK","updated_at":"2026-05-25T13:38:17.770008Z"}}